Regional Weather Roundup
Issued by NWS

Home | Current Version | Previous Version | Graphics & Text | Print | Product List | Glossary On
Versions: 1 2 3 4 5 6 7 8 9 10 11 12 13 14 15 16 17 18 19 20 21 22 23 24 25 26 27 28 29 30 31 32 33 34 35 36 37 38 39 40 41 42 43 44 45 46 47 48 49 50
370
ASUS45 KBOI 111510
RWRID

IDAHO REGIONAL WEATHER ROUNDUP
NATIONAL WEATHER SERVICE BOISE ID
800 AM MST THU FEB 11 2016

NOTE: "FAIR" INDICATES FEW OR NO CLOUDS BELOW 12000 FEET
WITH NO SIGNIFICANT WEATHER AND/OR OBSTRUCTIONS TO VISIBILITY

IDZ012-014-111600-
SOUTHWEST IDAHO


CITY           SKY/WX    TMP DP  RH WIND       PRES   REMARKS
BOISE          CLEAR     32  27  81 SE7       30.40F WCI  26
CALDWELL       MOCLDY    29  29 100 CALM      30.43S FOG
$$

IDZ016-017-111600-
SOUTHCENTRAL IDAHO


CITY           SKY/WX    TMP DP  RH WIND       PRES   REMARKS
BURLEY         CLEAR     24  22  91 E5        30.35F WCI  18
JEROME         CLEAR     24  19  81 NE18      30.36S WCI  10
TWIN FALLS     PTCLDY    26  25  96 E5        30.36R FOG     WCI  20
$$

IDZ019>023-111600-
SOUTHEAST IDAHO


CITY           SKY/WX    TMP DP  RH WIND       PRES   REMARKS
IDAHO FALLS    CLOUDY    11   8  88 N5        30.41S WCI   3
POCATELLO      CLOUDY    20  17  88 E9        30.40F WCI   9
REXBURG        CLOUDY    14  11  87 E5        30.41R FOG     WCI   6
$$

IDZ006-010-011-018-031-032-111600-
CENTRAL IDAHO MOUNTAINS


CITY           SKY/WX    TMP DP  RH WIND       PRES   REMARKS
MCCALL         CLOUDY    26  25  96 NE6       30.33R WCI  19
HAILEY         PTCLDY    18  16  93 N5        30.36S WCI  11
STANLEY          N/A     13   8  81 NE3       30.37F
SALMON         CLOUDY    10   5  79 CALM      30.42R
CHALLIS        PTCLDY    10   8  92 CALM      30.35S
$$

IDZ002-004-006-007-026-111600-
NORTHERN IDAHO


CITY           SKY/WX    TMP DP  RH WIND       PRES   REMARKS
LEWISTON       MOCLDY    43  35  73 E6        30.31R
LOWELL           N/A     35  33  92 CALM      30.39R
COEUR D`ALENE  CLOUDY    28  25  86 N3        30.29R VSB<1/4
MULLAN PASS    PTCLDY    31  30  96 S5        30.26R WCI  26
$$




USA.gov is the U.S. government's official web portal to all federal, state and local government web resources and services.